[[{"header":{"parameterUnit":"m.s-1","parameterCategory":1,"la1":30.2991,"la2":30.254,"lo1":-89.0895,"lo2":-89.0444,"dy":0.0017,"dx":0.0017,"nx":28,"ny":28,"refTime":"2024-08-31T03:00:00:Z","depth":0,"parameterNumber":2,"parameterNumberName":"U-component_of_WINDS"},"data":[0,0,0,0,0,0,0,0,0,0,0,0,0,0,0,0,0,0,0,0,0,0,0,0,0,0,0,0,0,0,0,0,0,0,0,0,0,0,0,0,0,0,0,0,0,0,0,0,0,0,0,0,0,0,0,0,0,0,-3.1302,-3.1302,0,-3.128,-3.128,-3.1279,-3.1199,-3.1197,-3.1195,-3.1194,-3.1173,-3.1174,-3.1175,0,0,0,0,0,0,0,0,0,0,0,0,0,-3.1277,-3.1278,-3.1302,-3.1302,-3.1302,-3.128,-3.128,-3.1279,-3.1199,-3.1197,-3.1195,-3.1193,-3.1172,-3.1174,-3.1175,0,0,0,0,0,0,0,0,0,0,0,0,0,-3.1275,-3.1278,-3.1302,-3.1259,-3.1255,-3.128,-3.128,-3.1279,-3.12,-3.1197,-3.1194,-3.1192,-3.1172,-3.1173,-3.1175,-3.1241,0,0,-3.118,-3.1181,0,0,0,0,0,0,0,0,-3.1275,-3.1276,-3.1266,-3.1262,-3.1258,-3.1239,-3.1263,-3.1266,-3.1201,-3.1221,-3.1194,-3.119,-3.1197,-3.1197,-3.1199,-3.124,-3.1239,-3.1181,-3.1182,-3.1182,-3.1183,0,0,0,0,0,0,0,-3.1275,-3.1276,-3.1293,-3.1266,-3.1261,-3.1241,-3.1238,-3.1263,-3.1225,-3.1219,-3.1213,-3.1211,-3.1194,-3.1197,-3.1197,-3.1238,-3.118,-3.1182,-3.1183,-3.1184,-3.1331,-3.1334,0,0,0,0,0,0,-3.1281,-3.1277,-3.1294,-3.1293,-3.126,-3.1244,-3.124,-3.1248,-3.1224,-3.1218,-3.1214,-3.1208,-3.1195,-3.1196,-3.1196,-3.127,-3.1182,-3.1184,-3.1185,-3.1329,-3.1332,-3.1335,0,0,0,0,0,0,-3.1281,-3.1284,-3.1295,-3.1283,-3.1283,-3.1247,-3.1257,-3.1249,-3.1251,-3.122,-3.1213,-3.1223,-3.1193,-3.1194,-3.123,-3.1268,-3.1185,-3.1186,-3.1325,-3.133,-3.1334,-3.1419,0,0,0,0,0,0,-3.1281,-3.1284,-3.1308,-3.1284,-3.1284,-3.1329,-3.1259,-3.1251,-3.1254,-3.1246,-3.1227,-3.1222,-3.1191,-3.1228,-3.1232,-3.1269,-3.1188,-3.1321,-3.1327,-3.1332,-3.1413,-3.1426,-3.1437,0,0,0,0,0,-3.128,-3.1334,-3.131,-3.1312,-3.1313,-3.1331,-3.1331,-3.1294,-3.1258,-3.1282,-3.1262,-3.1222,-3.1264,-3.1232,-3.1236,-3.1274,-3.1319,-3.1326,-3.1332,-3.1407,-3.1423,-3.1437,0,0,0,0,0,0,-3.1363,-3.133,-3.1303,-3.135,-3.1344,-3.1317,-3.1346,-3.1313,-3.1317,-3.1309,-3.1264,-3.1261,-3.1303,-3.1293,-3.1258,-3.1336,-3.1285,-3.1292,-3.1341,-3.1356,-3.1368,-3.1368,-3.1189,0,0,0,0,0,-3.1387,-3.1404,-3.1374,-3.1418,-3.1417,-3.1383,-3.1389,-3.1361,-3.1353,-3.135,-3.1333,-3.1327,-3.1338,-3.1347,-3.1356,-3.1412,-3.1406,-3.144,-3.1453,-3.1463,-3.1469,-3.1497,-3.1511,-3.1357,-3.1357,-3.1356,0,0,-3.1437,-3.142,-3.1433,-3.1435,-3.1427,-3.1445,-3.1381,-3.1403,-3.1416,-3.1354,-3.1385,-3.1373,-3.1364,-3.141,-3.1429,-3.1402,-3.1511,-3.1471,-3.1479,-3.148,-3.1505,-3.1519,-3.1532,-3.1361,-3.136,-3.1359,0,0,-3.1535,-3.1525,-3.156,-3.1554,-3.1542,-3.1519,-3.1528,-3.1506,-3.1495,-3.1527,-3.148,-3.1496,-3.1517,-3.1512,-3.1512,-3.161,-3.1573,-3.1615,-3.1678,-3.1705,-3.1717,-3.1728,-3.1761,-3.1773,-3.1622,-3.1622,-3.1622,0,-3.1598,-3.1622,-3.1583,-3.1608,-3.1609,-3.1554,-3.1589,-3.1585,-3.1578,-3.158,-3.1551,-3.1576,-3.1566,-3.1609,-3.1633,-3.1636,-3.1644,-3.1615,-3.1718,-3.1729,-3.1738,-3.1769,-3.1782,-3.1627,-3.1626,-3.1626,-3.1625,0,-3.1699,-3.1718,-3.1748,-3.1741,-3.1746,-3.1777,-3.1742,-3.1753,-3.1725,-3.1706,-3.1738,-3.1725,-3.1729,-3.1738,-3.1712,-3.1778,-3.1761,-3.1726,-3.1673,-3.1758,-3.1786,-3.1798,-3.1634,-3.1632,-3.1631,-3.1629,0,0,-3.1847,-3.1819,-3.183,-3.1826,-3.181,-3.1823,-3.1852,-3.1856,-3.1865,-3.1862,-3.1884,-3.1904,-3.1871,-3.1871,-3.1845,-3.1869,-3.1945,-3.183,-3.1829,-3.185,-3.2015,-3.204,-3.2055,-3.1922,-3.1924,-3.1926,-3.2015,0,-3.1939,-3.1984,-3.195,-3.2001,-3.2017,-3.1965,-3.199,-3.1983,-3.1966,-3.1977,-3.1958,-3.1972,-3.1929,-3.1928,-3.1951,-3.1931,-3.1978,-3.1925,-3.1941,-3.1942,-3.1942,-3.207,-3.2096,-3.2181,-3.2027,-3.2028,-3.203,0,-3.2052,-3.2053,-3.2106,-3.2085,-3.2091,-3.2113,-3.2114,-3.2126,-3.2117,-3.2103,-3.2104,-3.2071,-3.2097,-3.2047,-3.2083,-3.2048,-3.2053,-3.2045,-3.2047,-3.2045,-3.1989,-3.2069,-3.2207,-3.2219,-3.2047,-3.2046,-3.2045,0,-3.2152,-3.2167,-3.22,-3.2199,-3.2176,-3.2193,-3.2185,-3.2173,-3.2178,-3.218,-3.2182,-3.2187,-3.219,-3.2195,-3.2164,-3.2131,-3.2203,-3.2151,-3.2191,-3.2192,-3.2207,-3.2206,-3.2345,-3.2215,-3.2214,-3.2214,-3.2214,0,-3.2257,-3.229,-3.2245,-3.2265,-3.2301,-3.2262,-3.2299,-3.2286,-3.2276,-3.2293,-3.225,-3.2267,-3.2226,-3.2239,-3.2216,-3.2248,-3.225,-3.2239,-3.2232,-3.2241,-3.2242,-3.2242,-3.2235,-3.2217,-3.2217,-3.2216,-3.2215,0,-3.2373,-3.2344,-3.2376,-3.2353,-3.2348,-3.2376,-3.2355,-3.2373,-3.2354,-3.2376,-3.2379,-3.2349,-3.2361,-3.2332,-3.2341,-3.2325,-3.2371,-3.2355,-3.2373,-3.2367,-3.2409,-3.2405,-3.2551,-3.2568,-3.2429,-3.243,-3.2431,0,-3.2441,-3.2465,-3.2444,-3.2452,-3.2446,-3.2459,-3.2463,-3.2427,-3.2433,-3.2425,-3.2444,-3.2454,-3.2458,-3.2482,-3.2461,-3.2468,-3.2451,-3.2502,-3.2451,-3.246,-3.2449,-3.2447,-3.2449,-3.2511,-3.2513,-3.2515,-3.2516,0,-3.2562,-3.2547,-3.2554,-3.2557,-3.2563,-3.2564,-3.2561,-3.2571,-3.2532,-3.2541,-3.2553,-3.2558,-3.2567,-3.2576,-3.2578,-3.257,-3.2536,-3.2532,-3.2541,-3.255,-3.2558,-3.2552,-3.2399,-3.2528,-3.2527,-3.2526,-3.2525,-3.2525,-3.2655,-3.2674,-3.2662,-3.2671,-3.2666,-3.2665,-3.268,-3.2662,-3.2671,-3.2675,-3.2654,-3.2671,-3.2662,-3.2661,-3.2657,-3.267,-3.2646,-3.2661,-3.2664,-3.2667,-3.2673,-3.2559,-3.267,-3.267,-3.2669,-3.2669,-3.2669,0,-3.2772,-3.2762,-3.2772,-3.2769,-3.2777,-3.2745,-3.2741,-3.275,-3.2765,-3.2759,-3.2765,-3.2779,-3.2788,-3.2769,-3.2775,-3.2789,-3.2774,-3.2792,-3.2789,-3.2788,-3.2694,-3.2684,-3.2804,-3.2804,-3.2804,-3.2804,-3.2804,-3.2804,-3.2834,-3.2864,-3.2847,-3.2874,-3.2864,-3.2879,-3.2879,-3.2878,-3.2873,-3.2891,-3.2898,-3.2885,-3.2874,-3.2879,-3.2886,-3.288,-3.2884,-3.2907,-3.2895,-3.2808,-3.2794,-3.2782,-3.2772,-3.2908,-3.2908,-3.2987,-3.2988,-3.2988]},{"header":{"parameterUnit":"m.s-1","parameterCategory":1,"la1":30.2991,"la2":30.254,"lo1":-89.0895,"lo2":-89.0444,"dy":0.0017,"dx":0.0017,"nx":28,"ny":28,"refTime":"2024-08-31T03:00:00:Z","depth":0,"parameterNumber":3,"parameterNumberName":"V-component_of_WINDS"},"data":[0,0,0,0,0,0,0,0,0,0,0,0,0,0,0,0,0,0,0,0,0,0,0,0,0,0,0,0,0,0,0,0,0,0,0,0,0,0,0,0,0,0,0,0,0,0,0,0,0,0,0,0,0,0,0,0,0,0,1.4875,1.4875,0,1.4904,1.4904,1.4905,1.4911,1.4911,1.491,1.491,1.4938,1.4939,1.494,0,0,0,0,0,0,0,0,0,0,0,0,0,1.4825,1.4826,1.4875,1.4875,1.4875,1.4904,1.4904,1.4905,1.4911,1.4911,1.491,1.491,1.4938,1.4939,1.494,0,0,0,0,0,0,0,0,0,0,0,0,0,1.485,1.4826,1.4875,1.4882,1.4883,1.4904,1.4904,1.4905,1.4911,1.4911,1.491,1.491,1.4938,1.4939,1.494,1.4956,0,0,1.4945,1.4945,0,0,0,0,0,0,0,0,1.4848,1.4851,1.4881,1.4881,1.4883,1.4903,1.4897,1.4922,1.4911,1.49,1.491,1.491,1.4927,1.4929,1.4935,1.4957,1.4958,1.4945,1.4946,1.4946,1.4947,0,0,0,0,0,0,0,1.4846,1.485,1.4886,1.4881,1.4882,1.4884,1.4887,1.4902,1.4915,1.4901,1.4902,1.4905,1.4927,1.4934,1.4936,1.4959,1.4945,1.4946,1.4947,1.4948,1.4998,1.4998,0,0,0,0,0,0,1.4844,1.4849,1.4885,1.4887,1.4864,1.4885,1.4889,1.4897,1.4915,1.4917,1.4905,1.4905,1.4932,1.4934,1.4937,1.4958,1.4946,1.4948,1.4949,1.4997,1.4998,1.4998,0,0,0,0,0,0,1.4842,1.4847,1.4884,1.4868,1.4873,1.4886,1.4896,1.4898,1.4904,1.4918,1.492,1.491,1.4932,1.4935,1.4952,1.4959,1.4948,1.495,1.4997,1.4997,1.4998,1.4998,0,0,0,0,0,0,1.4841,1.4846,1.4852,1.4868,1.4874,1.4898,1.4896,1.4899,1.4907,1.4907,1.4923,1.4925,1.4932,1.495,1.4953,1.4961,1.4951,1.4996,1.4997,1.4998,1.4998,1.4999,1.5,0,0,0,0,0,1.4839,1.4849,1.4852,1.4856,1.4881,1.4898,1.4902,1.4909,1.4907,1.4913,1.4923,1.4924,1.4958,1.4951,1.4955,1.4963,1.4996,1.4997,1.4998,1.4997,1.4999,1.5,0,0,0,0,0,0,1.4831,1.4851,1.4854,1.487,1.4883,1.4899,1.4907,1.491,1.4923,1.4923,1.4932,1.4935,1.4952,1.4959,1.4952,1.4981,1.4977,1.4979,1.4975,1.4976,1.4978,1.4975,1.4952,0,0,0,0,0,1.4832,1.4845,1.4861,1.4874,1.488,1.4893,1.49,1.4906,1.4919,1.4924,1.4934,1.4947,1.4961,1.4969,1.4982,1.4999,1.5004,1.5007,1.5008,1.5009,1.501,1.5023,1.5025,1.5002,1.5002,1.5002,0,0,1.4832,1.4845,1.4852,1.4873,1.4883,1.4897,1.4897,1.491,1.492,1.4926,1.4943,1.4951,1.4966,1.4984,1.4992,1.4991,1.5018,1.5011,1.5011,1.5012,1.5024,1.5026,1.5028,1.5003,1.5002,1.5002,0,0,1.484,1.485,1.4863,1.4874,1.4891,1.49,1.4903,1.492,1.4926,1.4944,1.4949,1.4962,1.4984,1.4996,1.5004,1.5021,1.5023,1.5025,1.503,1.5042,1.5044,1.5046,1.5053,1.5055,1.5026,1.5026,1.5026,0,1.4838,1.4858,1.4869,1.4883,1.4893,1.4901,1.4914,1.4925,1.4944,1.4951,1.4949,1.498,1.499,1.5012,1.5017,1.5023,1.5028,1.5022,1.5043,1.5045,1.5047,1.5054,1.5056,1.5026,1.5026,1.5026,1.5026,0,1.4856,1.4871,1.4879,1.49,1.4911,1.4924,1.4938,1.4948,1.4954,1.4963,1.4983,1.4996,1.5013,1.5019,1.5023,1.5042,1.5041,1.5041,1.5037,1.5049,1.5056,1.5058,1.5027,1.5027,1.5027,1.5026,0,0,1.4856,1.4886,1.4889,1.49,1.492,1.4932,1.4947,1.4966,1.4975,1.4989,1.5003,1.5024,1.5025,1.5035,1.5042,1.5052,1.5067,1.5051,1.5052,1.5055,1.5091,1.5091,1.5093,1.507,1.507,1.5071,1.509,0,1.4867,1.4895,1.4907,1.493,1.4944,1.4954,1.4968,1.4982,1.4993,1.5007,1.5018,1.5034,1.5033,1.504,1.5051,1.5063,1.5074,1.5062,1.5083,1.5084,1.5079,1.5097,1.5096,1.5113,1.5093,1.5093,1.5093,0,1.4882,1.4899,1.4924,1.4946,1.4952,1.4964,1.4984,1.4997,1.5015,1.5022,1.5035,1.5042,1.506,1.5057,1.5082,1.5073,1.5083,1.5091,1.5092,1.5094,1.5089,1.5099,1.5119,1.5122,1.5097,1.5097,1.5097,0,1.4882,1.491,1.4929,1.4938,1.4964,1.4973,1.4984,1.5002,1.5013,1.503,1.5038,1.5057,1.5067,1.5082,1.5094,1.509,1.5119,1.5116,1.5126,1.5126,1.5131,1.513,1.5152,1.5137,1.5137,1.5137,1.5137,0,1.4892,1.4907,1.493,1.4941,1.4959,1.4974,1.4991,1.5003,1.502,1.5035,1.5044,1.5058,1.5074,1.509,1.51,1.5121,1.5125,1.5132,1.5134,1.5131,1.513,1.5137,1.5136,1.5138,1.5138,1.5138,1.5138,0,1.4893,1.4909,1.4931,1.4955,1.4962,1.4974,1.4995,1.5007,1.502,1.5039,1.5044,1.5063,1.5083,1.5098,1.5123,1.513,1.5153,1.5155,1.5147,1.5148,1.5158,1.5157,1.5185,1.519,1.5171,1.5171,1.5171,0,1.4899,1.4911,1.4937,1.4949,1.496,1.4978,1.4991,1.5006,1.5019,1.5043,1.5053,1.5074,1.5092,1.5124,1.514,1.516,1.5163,1.5172,1.5166,1.5163,1.5164,1.5164,1.5166,1.5172,1.5172,1.5172,1.5172,0,1.4907,1.4915,1.4933,1.4955,1.497,1.4988,1.5005,1.5014,1.5033,1.5047,1.5069,1.5083,1.5111,1.5132,1.5155,1.5167,1.5173,1.5175,1.5178,1.5175,1.517,1.5174,1.5149,1.5173,1.5173,1.5173,1.5173,1.5173,1.4911,1.4923,1.4945,1.4965,1.4981,1.4998,1.5012,1.5028,1.5046,1.507,1.5079,1.5102,1.5123,1.5154,1.5167,1.5186,1.5185,1.519,1.5191,1.5192,1.5193,1.5168,1.519,1.519,1.519,1.519,1.519,0,1.4921,1.4936,1.4955,1.4981,1.4998,1.5004,1.5025,1.5038,1.5059,1.5078,1.5096,1.5123,1.5145,1.5164,1.5187,1.5198,1.5202,1.5204,1.5203,1.5206,1.5191,1.5186,1.5201,1.5201,1.5201,1.5201,1.5201,1.5201,1.4927,1.495,1.4961,1.4992,1.5007,1.503,1.5042,1.5059,1.5075,1.5104,1.5123,1.5136,1.5156,1.5181,1.5202,1.5208,1.5216,1.5217,1.5223,1.5208,1.5207,1.5206,1.5201,1.5219,1.5219,1.5237,1.5237,1.5237]}]]